Вернуться в каталог

DELTA 1 DEB

АктивенLEO
NORAD 10306·DEBRIS·🇺🇸 United States

Запущен Jul 14, 1977 с Cape Canaveral Space Force Station

Loading…

Ближайшие Пролёты (ближайшие 24 часа)

TLE

СвежийSource: Space-Track

Эпоха: Sep 14, 2026, 12:06 UTC

1 10306U 77065DC  26257.50443890  .00002915  00000-0  69608-3 0  9999
2 10306  29.1099 353.4042 0650969 211.9486 143.9972 13.68397780403283

Отслеживайте DELTA 1 DEB в реальном времени с AllMySat

Download on the App Store